User: anonymous   Login
Location: Great Northern Moose Lodge
(44.6765°N, 71.1811°W)
Time: 03:41:11
(UTC-04:00)
Language:

Terra - Orbit

View from above orbital plane
View from above orbital plane
View from above satellite
View from above satellite

Ground track
Ground track

The orbit data is extracted from the following two-line orbital elements,

1 25994U 99068A   17296.75431980 -.00000529  00000-0 -10741-3 0  9997
2 25994  98.2085   9.9024 0001200  70.2189 289.9158 14.57113868949397
Epoch (UTC): 23 October 2017 18:06:13
Eccentricity: 0.0001200
inclination: 98.2085°
perigee height: 701 km
apogee height: 703 km
right ascension of ascending node: 9.9024°
argument of perigee: 70.2189°
revolutions per day: 14.57113868
mean anomaly at epoch: 289.9158°
orbit number at epoch: 94939

The dashed part of the orbit path shows where the satellite is in the earth's shadow,  

DLR